Time,TemperatureF,DewpointF,PressureIn,WindDirection,WindDirectionDegrees,WindSpeedMPH,WindSpeedGustMPH,Humidity,HourlyPrecipIn,Conditions,Clouds,dailyrainin,SoftwareType,DateUTC
2013-03-29 00:00:00,38.8,34.0,29.85,North,-999,-999.0,-999.0,77,-99.99,,,-99.99,Homeseer,2013-03-29 04:00:00,
2013-03-29 00:01:00,38.8,34.0,29.85,North,-999,-999.0,-999.0,77,-99.99,,,-99.99,Homeseer,2013-03-29 04:01:00,
2013-03-29 00:06:00,38.7,33.9,29.85,North,-999,-999.0,-999.0,77,-99.99,,,-99.99,Homeseer,2013-03-29 04:06:00,
2013-03-29 00:11:00,38.8,34.0,29.85,North,-999,-999.0,-999.0,77,-99.99,,,-99.99,Homeseer,2013-03-29 04:11:00,
2013-03-29 00:14:00,38.8,34.0,29.85,North,-999,-999.0,-999.0,77,-99.99,,,-99.99,Homeseer,2013-03-29 04:14:00,
2013-03-29 00:19:00,38.8,34.3,29.85,North,-999,-999.0,-999.0,78,-99.99,,,-99.99,Homeseer,2013-03-29 04:19:00,
2013-03-29 00:24:00,38.7,33.9,29.85,North,-999,-999.0,-999.0,77,-99.99,,,-99.99,Homeseer,2013-03-29 04:24:00,
2013-03-29 00:29:00,38.7,33.9,29.86,North,-999,-999.0,-999.0,77,-99.99,,,-99.99,Homeseer,2013-03-29 04:29:00,
2013-03-29 00:34:00,38.6,33.8,29.86,North,-999,-999.0,-999.0,77,-99.99,,,-99.99,Homeseer,2013-03-29 04:34:00,
2013-03-29 00:40:00,38.3,33.5,29.86,North,-999,-999.0,-999.0,77,-99.99,,,-99.99,Homeseer,2013-03-29 04:40:00,
2013-03-29 00:41:00,38.3,33.8,29.86,North,-999,-999.0,-999.0,78,-99.99,,,-99.99,Homeseer,2013-03-29 04:41:00,
2013-03-29 00:46:00,38.3,33.5,29.87,North,-999,-999.0,-999.0,77,-99.99,,,-99.99,Homeseer,2013-03-29 04:46:00,
2013-03-29 00:51:00,38.1,33.6,29.86,North,-999,-999.0,-999.0,78,-99.99,,,-99.99,Homeseer,2013-03-29 04:51:00,
2013-03-29 00:56:00,37.8,33.3,29.86,North,-999,-999.0,-999.0,78,-99.99,,,-99.99,Homeseer,2013-03-29 04:56:00,
2013-03-29 01:02:00,37.4,32.9,29.87,North,-999,-999.0,-999.0,78,-99.99,,,-99.99,Homeseer,2013-03-29 05:02:00,
2013-03-29 01:07:00,37.3,32.8,29.87,North,-999,-999.0,-999.0,78,-99.99,,,-99.99,Homeseer,2013-03-29 05:07:00,
2013-03-29 01:13:00,36.8,32.8,29.87,North,-999,-999.0,-999.0,80,-99.99,,,-99.99,Homeseer,2013-03-29 05:13:00,
2013-03-29 01:18:00,36.6,32.6,29.87,North,-999,-999.0,-999.0,80,-99.99,,,-99.99,Homeseer,2013-03-29 05:18:00,
2013-03-29 01:23:00,36.2,32.2,29.87,North,-999,-999.0,-999.0,80,-99.99,,,-99.99,Homeseer,2013-03-29 05:23:00,
2013-03-29 01:29:00,36.0,32.2,29.87,North,-999,-999.0,-999.0,81,-99.99,,,-99.99,Homeseer,2013-03-29 05:29:00,
2013-03-29 01:34:00,35.8,32.2,29.87,North,-999,-999.0,-999.0,82,-99.99,,,-99.99,Homeseer,2013-03-29 05:34:00,
2013-03-29 01:39:00,35.6,32.0,29.87,North,-999,-999.0,-999.0,82,-99.99,,,-99.99,Homeseer,2013-03-29 05:39:00,
2013-03-29 01:44:00,35.5,31.7,29.87,North,-999,-999.0,-999.0,81,-99.99,,,-99.99,Homeseer,2013-03-29 05:44:00,
2013-03-29 01:49:00,35.4,31.9,29.86,North,-999,-999.0,-999.0,82,-99.99,,,-99.99,Homeseer,2013-03-29 05:49:00,
2013-03-29 01:54:00,35.3,31.5,29.86,North,-999,-999.0,-999.0,81,-99.99,,,-99.99,Homeseer,2013-03-29 05:54:00,
2013-03-29 01:59:00,35.1,31.6,29.87,North,-999,-999.0,-999.0,82,-99.99,,,-99.99,Homeseer,2013-03-29 05:59:00,
2013-03-29 02:04:00,35.0,31.5,29.86,North,-999,-999.0,-999.0,82,-99.99,,,-99.99,Homeseer,2013-03-29 06:04:00,
2013-03-29 02:09:00,34.7,31.0,29.87,North,-999,-999.0,-999.0,81,-99.99,,,-99.99,Homeseer,2013-03-29 06:09:00,
2013-03-29 02:14:00,34.5,31.4,29.86,North,-999,-999.0,-999.0,84,-99.99,,,-99.99,Homeseer,2013-03-29 06:14:00,
2013-03-29 02:19:00,34.3,31.2,29.87,North,-999,-999.0,-999.0,84,-99.99,,,-99.99,Homeseer,2013-03-29 06:19:00,
2013-03-29 02:25:00,34.1,31.4,29.86,North,-999,-999.0,-999.0,86,-99.99,,,-99.99,Homeseer,2013-03-29 06:25:00,
2013-03-29 02:30:00,33.8,31.1,29.86,North,-999,-999.0,-999.0,86,-99.99,,,-99.99,Homeseer,2013-03-29 06:30:00,
2013-03-29 02:35:00,33.8,30.9,29.86,North,-999,-999.0,-999.0,85,-99.99,,,-99.99,Homeseer,2013-03-29 06:35:00,
2013-03-29 02:40:00,33.7,30.6,29.86,North,-999,-999.0,-999.0,84,-99.99,,,-99.99,Homeseer,2013-03-29 06:40:00,
2013-03-29 02:45:00,33.5,31.0,29.86,North,-999,-999.0,-999.0,87,-99.99,,,-99.99,Homeseer,2013-03-29 06:45:00,
2013-03-29 02:50:00,33.6,30.9,29.85,North,-999,-999.0,-999.0,86,-99.99,,,-99.99,Homeseer,2013-03-29 06:50:00,
2013-03-29 02:55:00,33.5,31.0,29.86,North,-999,-999.0,-999.0,87,-99.99,,,-99.99,Homeseer,2013-03-29 06:55:00,
2013-03-29 03:00:00,33.5,30.6,29.85,North,-999,-999.0,-999.0,85,-99.99,,,-99.99,Homeseer,2013-03-29 07:00:00,
2013-03-29 03:05:00,33.4,30.7,29.85,North,-999,-999.0,-999.0,86,-99.99,,,-99.99,Homeseer,2013-03-29 07:05:00,
2013-03-29 03:10:00,33.2,30.9,29.85,North,-999,-999.0,-999.0,88,-99.99,,,-99.99,Homeseer,2013-03-29 07:10:00,
2013-03-29 03:15:00,33.3,30.6,29.85,North,-999,-999.0,-999.0,86,-99.99,,,-99.99,Homeseer,2013-03-29 07:15:00,
2013-03-29 03:20:00,33.3,30.4,29.85,North,-999,-999.0,-999.0,85,-99.99,,,-99.99,Homeseer,2013-03-29 07:20:00,
2013-03-29 03:25:00,33.0,30.5,29.85,North,-999,-999.0,-999.0,87,-99.99,,,-99.99,Homeseer,2013-03-29 07:25:00,
2013-03-29 03:30:00,32.9,30.4,29.85,North,-999,-999.0,-999.0,87,-99.99,,,-99.99,Homeseer,2013-03-29 07:30:00,
2013-03-29 03:35:00,32.9,30.2,29.85,North,-999,-999.0,-999.0,86,-99.99,,,-99.99,Homeseer,2013-03-29 07:35:00,
2013-03-29 03:40:00,32.8,30.3,29.85,North,-999,-999.0,-999.0,87,-99.99,,,-99.99,Homeseer,2013-03-29 07:40:00,
2013-03-29 03:45:00,32.8,30.3,29.85,North,-999,-999.0,-999.0,87,-99.99,,,-99.99,Homeseer,2013-03-29 07:45:00,
2013-03-29 03:50:00,32.8,30.3,29.85,North,-999,-999.0,-999.0,87,-99.99,,,-99.99,Homeseer,2013-03-29 07:50:00,
2013-03-29 03:55:00,32.7,30.4,29.85,North,-999,-999.0,-999.0,88,-99.99,,,-99.99,Homeseer,2013-03-29 07:55:00,
2013-03-29 04:00:00,32.7,30.4,29.85,North,-999,-999.0,-999.0,88,-99.99,,,-99.99,Homeseer,2013-03-29 08:00:00,
2013-03-29 04:05:00,32.8,30.5,29.85,North,-999,-999.0,-999.0,88,-99.99,,,-99.99,Homeseer,2013-03-29 08:05:00,
2013-03-29 04:10:00,32.8,30.3,29.85,North,-999,-999.0,-999.0,87,-99.99,,,-99.99,Homeseer,2013-03-29 08:10:00,
2013-03-29 04:15:00,32.8,30.7,29.85,North,-999,-999.0,-999.0,89,-99.99,,,-99.99,Homeseer,2013-03-29 08:15:00,
2013-03-29 04:20:00,32.7,30.2,29.85,North,-999,-999.0,-999.0,87,-99.99,,,-99.99,Homeseer,2013-03-29 08:20:00,
2013-03-29 04:25:00,32.7,30.4,29.85,North,-999,-999.0,-999.0,88,-99.99,,,-99.99,Homeseer,2013-03-29 08:25:00,
2013-03-29 04:30:00,32.6,30.3,29.85,North,-999,-999.0,-999.0,88,-99.99,,,-99.99,Homeseer,2013-03-29 08:30:00,
2013-03-29 04:35:00,32.6,30.3,29.85,North,-999,-999.0,-999.0,88,-99.99,,,-99.99,Homeseer,2013-03-29 08:35:00,
2013-03-29 04:40:00,32.5,30.6,29.85,North,-999,-999.0,-999.0,90,-99.99,,,-99.99,Homeseer,2013-03-29 08:40:00,
2013-03-29 04:45:00,32.5,30.4,29.85,North,-999,-999.0,-999.0,89,-99.99,,,-99.99,Homeseer,2013-03-29 08:45:00,
2013-03-29 04:50:00,32.6,30.5,29.84,North,-999,-999.0,-999.0,89,-99.99,,,-99.99,Homeseer,2013-03-29 08:50:00,
2013-03-29 04:55:00,32.7,30.6,29.85,North,-999,-999.0,-999.0,89,-99.99,,,-99.99,Homeseer,2013-03-29 08:55:00,
2013-03-29 05:00:00,32.8,30.7,29.85,North,-999,-999.0,-999.0,89,-99.99,,,-99.99,Homeseer,2013-03-29 09:00:00,
2013-03-29 05:05:00,32.7,30.6,29.85,North,-999,-999.0,-999.0,89,-99.99,,,-99.99,Homeseer,2013-03-29 09:05:00,
2013-03-29 05:10:00,32.6,30.3,29.85,North,-999,-999.0,-999.0,88,-99.99,,,-99.99,Homeseer,2013-03-29 09:10:00,
2013-03-29 05:15:00,32.5,30.3,29.85,North,-999,-999.0,-999.0,88,-99.99,,,-99.99,Homeseer,2013-03-29 09:15:00,
2013-03-29 05:20:00,32.3,30.4,29.85,North,-999,-999.0,-999.0,90,-99.99,,,-99.99,Homeseer,2013-03-29 09:20:00,
2013-03-29 05:25:00,32.3,30.4,29.85,North,-999,-999.0,-999.0,90,-99.99,,,-99.99,Homeseer,2013-03-29 09:25:00,
2013-03-29 05:30:00,32.3,30.3,29.85,North,-999,-999.0,-999.0,89,-99.99,,,-99.99,Homeseer,2013-03-29 09:30:00,
2013-03-29 05:35:00,32.2,30.2,29.85,North,-999,-999.0,-999.0,89,-99.99,,,-99.99,Homeseer,2013-03-29 09:35:00,
2013-03-29 05:40:00,32.0,30.0,29.85,North,-999,-999.0,-999.0,89,-99.99,,,-99.99,Homeseer,2013-03-29 09:40:00,
2013-03-29 05:45:00,32.2,30.2,29.85,North,-999,-999.0,-999.0,89,-99.99,,,-99.99,Homeseer,2013-03-29 09:45:00,
2013-03-29 05:50:00,32.2,30.0,29.85,North,-999,-999.0,-999.0,88,-99.99,,,-99.99,Homeseer,2013-03-29 09:50:00,
2013-03-29 05:55:00,31.9,29.9,29.86,North,-999,-999.0,-999.0,89,-99.99,,,-99.99,Homeseer,2013-03-29 09:55:00,
2013-03-29 06:00:00,31.9,29.7,29.86,North,-999,-999.0,-999.0,88,-99.99,,,-99.99,Homeseer,2013-03-29 10:00:00,
2013-03-29 06:05:00,31.7,29.9,29.86,North,-999,-999.0,-999.0,90,-99.99,,,-99.99,Homeseer,2013-03-29 10:05:00,
2013-03-29 06:10:00,31.6,29.9,29.86,North,-999,-999.0,-999.0,91,-99.99,,,-99.99,Homeseer,2013-03-29 10:10:00,
2013-03-29 06:15:00,31.7,30.0,29.86,North,-999,-999.0,-999.0,91,-99.99,,,-99.99,Homeseer,2013-03-29 10:15:00,
2013-03-29 06:20:00,31.7,30.0,29.86,North,-999,-999.0,-999.0,91,-99.99,,,-99.99,Homeseer,2013-03-29 10:20:00,
2013-03-29 06:25:00,31.7,29.9,29.86,North,-999,-999.0,-999.0,90,-99.99,,,-99.99,Homeseer,2013-03-29 10:25:00,
2013-03-29 06:30:00,31.6,30.1,29.86,North,-999,-999.0,-999.0,92,-99.99,,,-99.99,Homeseer,2013-03-29 10:30:00,
2013-03-29 06:35:00,31.6,30.1,29.87,North,-999,-999.0,-999.0,92,-99.99,,,-99.99,Homeseer,2013-03-29 10:35:00,
2013-03-29 06:40:00,31.7,30.2,29.87,North,-999,-999.0,-999.0,92,-99.99,,,-99.99,Homeseer,2013-03-29 10:40:00,
2013-03-29 06:45:00,31.8,30.1,29.87,North,-999,-999.0,-999.0,91,-99.99,,,-99.99,Homeseer,2013-03-29 10:45:00,
2013-03-29 06:50:00,31.6,30.3,29.87,North,-999,-999.0,-999.0,93,-99.99,,,-99.99,Homeseer,2013-03-29 10:50:00,
2013-03-29 06:55:00,31.7,30.2,29.87,North,-999,-999.0,-999.0,92,-99.99,,,-99.99,Homeseer,2013-03-29 10:55:00,
2013-03-29 07:01:00,31.8,30.3,29.87,North,-999,-999.0,-999.0,92,-99.99,,,-99.99,Homeseer,2013-03-29 11:01:00,
2013-03-29 07:06:00,32.0,30.7,29.87,North,-999,-999.0,-999.0,93,-99.99,,,-99.99,Homeseer,2013-03-29 11:06:00,
2013-03-29 07:11:00,32.4,30.7,29.87,North,-999,-999.0,-999.0,91,-99.99,,,-99.99,Homeseer,2013-03-29 11:11:00,
2013-03-29 07:17:00,32.7,31.0,29.87,North,-999,-999.0,-999.0,91,-99.99,,,-99.99,Homeseer,2013-03-29 11:17:00,
2013-03-29 07:22:00,32.9,31.2,29.88,North,-999,-999.0,-999.0,91,-99.99,,,-99.99,Homeseer,2013-03-29 11:22:00,
2013-03-29 07:28:00,33.5,31.8,29.87,North,-999,-999.0,-999.0,91,-99.99,,,-99.99,Homeseer,2013-03-29 11:28:00,
2013-03-29 07:33:00,34.0,32.3,29.88,North,-999,-999.0,-999.0,91,-99.99,,,-99.99,Homeseer,2013-03-29 11:33:00,
2013-03-29 07:38:00,34.6,32.7,29.88,North,-999,-999.0,-999.0,90,-99.99,,,-99.99,Homeseer,2013-03-29 11:38:00,
2013-03-29 07:43:00,35.3,33.4,29.88,North,-999,-999.0,-999.0,90,-99.99,,,-99.99,Homeseer,2013-03-29 11:43:00,
2013-03-29 07:48:00,36.0,33.9,29.88,North,-999,-999.0,-999.0,89,-99.99,,,-99.99,Homeseer,2013-03-29 11:48:00,
2013-03-29 07:53:00,36.5,34.0,29.88,North,-999,-999.0,-999.0,87,-99.99,,,-99.99,Homeseer,2013-03-29 11:53:00,
2013-03-29 07:58:00,37.0,34.7,29.88,North,-999,-999.0,-999.0,88,-99.99,,,-99.99,Homeseer,2013-03-29 11:58:00,
2013-03-29 08:03:00,37.6,35.3,29.88,North,-999,-999.0,-999.0,88,-99.99,,,-99.99,Homeseer,2013-03-29 12:03:00,
2013-03-29 08:08:00,38.1,35.6,29.88,North,-999,-999.0,-999.0,87,-99.99,,,-99.99,Homeseer,2013-03-29 12:08:00,
2013-03-29 08:13:00,38.9,35.9,29.88,North,-999,-999.0,-999.0,85,-99.99,,,-99.99,Homeseer,2013-03-29 12:13:00,
2013-03-29 08:18:00,39.5,36.9,29.89,North,-999,-999.0,-999.0,87,-99.99,,,-99.99,Homeseer,2013-03-29 12:18:00,
2013-03-29 08:23:00,40.1,37.1,29.89,North,-999,-999.0,-999.0,85,-99.99,,,-99.99,Homeseer,2013-03-29 12:23:00,
2013-03-29 08:28:00,40.7,37.5,29.89,North,-999,-999.0,-999.0,84,-99.99,,,-99.99,Homeseer,2013-03-29 12:28:00,
2013-03-29 08:34:00,41.5,37.6,29.89,North,-999,-999.0,-999.0,81,-99.99,,,-99.99,Homeseer,2013-03-29 12:34:00,
2013-03-29 08:39:00,42.0,38.1,29.89,North,-999,-999.0,-999.0,81,-99.99,,,-99.99,Homeseer,2013-03-29 12:39:00,
2013-03-29 08:44:00,42.5,37.8,29.89,North,-999,-999.0,-999.0,78,-99.99,,,-99.99,Homeseer,2013-03-29 12:44:00,
2013-03-29 08:49:00,43.1,38.2,29.88,North,-999,-999.0,-999.0,77,-99.99,,,-99.99,Homeseer,2013-03-29 12:49:00,
2013-03-29 08:54:00,43.6,38.4,29.89,North,-999,-999.0,-999.0,76,-99.99,,,-99.99,Homeseer,2013-03-29 12:54:00,
2013-03-29 08:59:00,44.1,38.2,29.89,North,-999,-999.0,-999.0,73,-99.99,,,-99.99,Homeseer,2013-03-29 12:59:00,
2013-03-29 09:04:00,44.5,38.3,29.89,North,-999,-999.0,-999.0,72,-99.99,,,-99.99,Homeseer,2013-03-29 13:04:00,
2013-03-29 09:09:00,44.8,37.5,29.89,North,-999,-999.0,-999.0,68,-99.99,,,-99.99,Homeseer,2013-03-29 13:09:00,
2013-03-29 09:14:00,45.0,38.0,29.89,North,-999,-999.0,-999.0,69,-99.99,,,-99.99,Homeseer,2013-03-29 13:14:00,
2013-03-29 09:19:00,45.5,38.5,29.89,North,-999,-999.0,-999.0,69,-99.99,,,-99.99,Homeseer,2013-03-29 13:19:00,
2013-03-29 09:24:00,46.0,38.4,29.89,North,-999,-999.0,-999.0,67,-99.99,,,-99.99,Homeseer,2013-03-29 13:24:00,
2013-03-29 09:29:00,46.0,37.3,29.89,North,-999,-999.0,-999.0,63,-99.99,,,-99.99,Homeseer,2013-03-29 13:29:00,
2013-03-29 09:34:00,46.1,37.6,29.89,North,-999,-999.0,-999.0,64,-99.99,,,-99.99,Homeseer,2013-03-29 13:34:00,
2013-03-29 09:39:00,46.7,37.9,29.89,North,-999,-999.0,-999.0,63,-99.99,,,-99.99,Homeseer,2013-03-29 13:39:00,
2013-03-29 09:44:00,46.9,38.1,29.89,North,-999,-999.0,-999.0,63,-99.99,,,-99.99,Homeseer,2013-03-29 13:44:00,
2013-03-29 09:49:00,47.1,38.0,29.89,North,-999,-999.0,-999.0,62,-99.99,,,-99.99,Homeseer,2013-03-29 13:49:00,
2013-03-29 09:54:00,47.2,37.8,29.89,North,-999,-999.0,-999.0,61,-99.99,,,-99.99,Homeseer,2013-03-29 13:54:00,
2013-03-29 09:59:00,47.4,38.0,29.89,North,-999,-999.0,-999.0,61,-99.99,,,-99.99,Homeseer,2013-03-29 13:59:00,
2013-03-29 10:04:00,47.3,37.3,29.89,North,-999,-999.0,-999.0,59,-99.99,,,-99.99,Homeseer,2013-03-29 14:04:00,
2013-03-29 10:09:00,47.4,37.4,29.89,North,-999,-999.0,-999.0,59,-99.99,,,-99.99,Homeseer,2013-03-29 14:09:00,
2013-03-29 10:14:00,48.2,38.1,29.89,North,-999,-999.0,-999.0,59,-99.99,,,-99.99,Homeseer,2013-03-29 14:14:00,
2013-03-29 10:19:00,47.9,37.2,29.89,North,-999,-999.0,-999.0,57,-99.99,,,-99.99,Homeseer,2013-03-29 14:19:00,
2013-03-29 10:24:00,48.1,37.7,29.89,North,-999,-999.0,-999.0,58,-99.99,,,-99.99,Homeseer,2013-03-29 14:24:00,
2013-03-29 10:29:00,48.6,38.5,29.89,North,-999,-999.0,-999.0,59,-99.99,,,-99.99,Homeseer,2013-03-29 14:29:00,
2013-03-29 10:34:00,48.5,38.1,29.89,North,-999,-999.0,-999.0,58,-99.99,,,-99.99,Homeseer,2013-03-29 14:34:00,
2013-03-29 10:39:00,48.4,37.7,29.89,North,-999,-999.0,-999.0,57,-99.99,,,-99.99,Homeseer,2013-03-29 14:39:00,
2013-03-29 10:45:00,48.8,38.4,29.89,North,-999,-999.0,-999.0,58,-99.99,,,-99.99,Homeseer,2013-03-29 14:45:00,
2013-03-29 10:50:00,48.8,37.4,29.89,North,-999,-999.0,-999.0,55,-99.99,,,-99.99,Homeseer,2013-03-29 14:50:00,
2013-03-29 10:55:00,49.8,37.6,29.89,North,-999,-999.0,-999.0,53,-99.99,,,-99.99,Homeseer,2013-03-29 14:55:00,
2013-03-29 11:00:00,51.7,39.4,29.89,North,-999,-999.0,-999.0,53,-99.99,,,-99.99,Homeseer,2013-03-29 15:00:00,
2013-03-29 11:05:00,52.0,38.9,29.89,North,-999,-999.0,-999.0,51,-99.99,,,-99.99,Homeseer,2013-03-29 15:05:00,
2013-03-29 11:10:00,51.6,38.2,29.89,North,-999,-999.0,-999.0,50,-99.99,,,-99.99,Homeseer,2013-03-29 15:10:00,
2013-03-29 11:15:00,52.0,38.5,29.89,North,-999,-999.0,-999.0,50,-99.99,,,-99.99,Homeseer,2013-03-29 15:15:00,
2013-03-29 11:20:00,52.1,39.0,29.89,North,-999,-999.0,-999.0,51,-99.99,,,-99.99,Homeseer,2013-03-29 15:20:00,
2013-03-29 11:25:00,52.0,38.5,29.89,North,-999,-999.0,-999.0,50,-99.99,,,-99.99,Homeseer,2013-03-29 15:25:00,
2013-03-29 11:30:00,53.1,39.2,29.88,North,-999,-999.0,-999.0,49,-99.99,,,-99.99,Homeseer,2013-03-29 15:30:00,
2013-03-29 11:35:00,53.8,37.8,29.88,North,-999,-999.0,-999.0,44,-99.99,,,-99.99,Homeseer,2013-03-29 15:35:00,
2013-03-29 11:40:00,55.1,39.4,29.88,North,-999,-999.0,-999.0,45,-99.99,,,-99.99,Homeseer,2013-03-29 15:40:00,
2013-03-29 11:45:00,55.2,38.2,29.88,North,-999,-999.0,-999.0,42,-99.99,,,-99.99,Homeseer,2013-03-29 15:45:00,
2013-03-29 11:50:00,55.2,39.5,29.87,North,-999,-999.0,-999.0,45,-99.99,,,-99.99,Homeseer,2013-03-29 15:50:00,
2013-03-29 11:55:00,55.1,38.1,29.87,North,-999,-999.0,-999.0,42,-99.99,,,-99.99,Homeseer,2013-03-29 15:55:00,
2013-03-29 12:00:00,55.7,39.1,29.87,North,-999,-999.0,-999.0,43,-99.99,,,-99.99,Homeseer,2013-03-29 16:00:00,
2013-03-29 12:05:00,55.8,38.7,29.87,North,-999,-999.0,-999.0,42,-99.99,,,-99.99,Homeseer,2013-03-29 16:05:00,
2013-03-29 12:10:00,55.4,37.5,29.86,North,-999,-999.0,-999.0,40,-99.99,,,-99.99,Homeseer,2013-03-29 16:10:00,
2013-03-29 12:15:00,55.7,38.6,29.86,North,-999,-999.0,-999.0,42,-99.99,,,-99.99,Homeseer,2013-03-29 16:15:00,
2013-03-29 12:20:00,55.4,37.5,29.85,North,-999,-999.0,-999.0,40,-99.99,,,-99.99,Homeseer,2013-03-29 16:20:00,
2013-03-29 12:25:00,56.6,38.5,29.85,North,-999,-999.0,-999.0,40,-99.99,,,-99.99,Homeseer,2013-03-29 16:25:00,
2013-03-29 12:30:00,55.8,37.8,29.85,North,-999,-999.0,-999.0,40,-99.99,,,-99.99,Homeseer,2013-03-29 16:30:00,
2013-03-29 12:35:00,55.4,37.5,29.85,North,-999,-999.0,-999.0,40,-99.99,,,-99.99,Homeseer,2013-03-29 16:35:00,
2013-03-29 12:40:00,55.1,37.7,29.85,North,-999,-999.0,-999.0,41,-99.99,,,-99.99,Homeseer,2013-03-29 16:40:00,
2013-03-29 12:45:00,56.3,38.3,29.84,North,-999,-999.0,-999.0,40,-99.99,,,-99.99,Homeseer,2013-03-29 16:45:00,
2013-03-29 12:50:00,58.5,38.8,29.83,North,-999,-999.0,-999.0,37,-99.99,,,-99.99,Homeseer,2013-03-29 16:50:00,
2013-03-29 12:55:00,58.7,38.4,29.83,North,-999,-999.0,-999.0,36,-99.99,,,-99.99,Homeseer,2013-03-29 16:55:00,
2013-03-29 13:00:00,58.5,38.8,29.83,North,-999,-999.0,-999.0,37,-99.99,,,-99.99,Homeseer,2013-03-29 17:00:00,
2013-03-29 13:05:00,58.5,38.8,29.83,North,-999,-999.0,-999.0,37,-99.99,,,-99.99,Homeseer,2013-03-29 17:05:00,
2013-03-29 13:10:00,58.5,36.7,29.83,North,-999,-999.0,-999.0,33,-99.99,,,-99.99,Homeseer,2013-03-29 17:10:00,
2013-03-29 13:15:00,57.6,37.5,29.82,North,-999,-999.0,-999.0,36,-99.99,,,-99.99,Homeseer,2013-03-29 17:15:00,
2013-03-29 13:20:00,56.9,37.4,29.82,North,-999,-999.0,-999.0,37,-99.99,,,-99.99,Homeseer,2013-03-29 17:20:00,
2013-03-29 13:25:00,56.9,37.9,29.82,North,-999,-999.0,-999.0,38,-99.99,,,-99.99,Homeseer,2013-03-29 17:25:00,
2013-03-29 13:30:00,56.2,36.8,29.82,North,-999,-999.0,-999.0,37,-99.99,,,-99.99,Homeseer,2013-03-29 17:30:00,
2013-03-29 13:35:00,55.9,37.5,29.82,North,-999,-999.0,-999.0,39,-99.99,,,-99.99,Homeseer,2013-03-29 17:35:00,
2013-03-29 13:40:00,54.8,37.0,29.81,North,-999,-999.0,-999.0,40,-99.99,,,-99.99,Homeseer,2013-03-29 17:40:00,
2013-03-29 13:45:00,54.4,37.5,29.81,North,-999,-999.0,-999.0,42,-99.99,,,-99.99,Homeseer,2013-03-29 17:45:00,
2013-03-29 13:50:00,54.1,36.8,29.81,North,-999,-999.0,-999.0,41,-99.99,,,-99.99,Homeseer,2013-03-29 17:50:00,
2013-03-29 13:55:00,54.1,36.3,29.81,North,-999,-999.0,-999.0,40,-99.99,,,-99.99,Homeseer,2013-03-29 17:55:00,
2013-03-29 14:00:00,54.4,36.6,29.81,North,-999,-999.0,-999.0,40,-99.99,,,-99.99,Homeseer,2013-03-29 18:00:00,
2013-03-29 14:05:00,54.4,35.2,29.81,North,-999,-999.0,-999.0,37,-99.99,,,-99.99,Homeseer,2013-03-29 18:05:00,
2013-03-29 14:10:00,55.0,35.2,29.80,North,-999,-999.0,-999.0,36,-99.99,,,-99.99,Homeseer,2013-03-29 18:10:00,
2013-03-29 14:15:00,56.7,35.7,29.80,North,-999,-999.0,-999.0,34,-99.99,,,-99.99,Homeseer,2013-03-29 18:15:00,
2013-03-29 14:20:00,56.9,35.3,29.79,North,-999,-999.0,-999.0,33,-99.99,,,-99.99,Homeseer,2013-03-29 18:20:00,
2013-03-29 14:25:00,56.7,35.7,29.79,North,-999,-999.0,-999.0,34,-99.99,,,-99.99,Homeseer,2013-03-29 18:25:00,
2013-03-29 14:30:00,56.2,35.7,29.79,North,-999,-999.0,-999.0,35,-99.99,,,-99.99,Homeseer,2013-03-29 18:30:00,
2013-03-29 14:35:00,56.6,36.6,29.79,North,-999,-999.0,-999.0,36,-99.99,,,-99.99,Homeseer,2013-03-29 18:35:00,
2013-03-29 14:40:00,56.7,35.7,29.79,North,-999,-999.0,-999.0,34,-99.99,,,-99.99,Homeseer,2013-03-29 18:40:00,
2013-03-29 14:45:00,56.3,35.3,29.79,North,-999,-999.0,-999.0,34,-99.99,,,-99.99,Homeseer,2013-03-29 18:45:00,
2013-03-29 14:50:00,56.0,34.5,29.79,North,-999,-999.0,-999.0,33,-99.99,,,-99.99,Homeseer,2013-03-29 18:50:00,
2013-03-29 14:55:00,55.3,34.4,29.79,North,-999,-999.0,-999.0,34,-99.99,,,-99.99,Homeseer,2013-03-29 18:55:00,
2013-03-29 15:00:00,55.0,35.2,29.79,North,-999,-999.0,-999.0,36,-99.99,,,-99.99,Homeseer,2013-03-29 19:00:00,
2013-03-29 15:05:00,55.0,35.7,29.78,North,-999,-999.0,-999.0,37,-99.99,,,-99.99,Homeseer,2013-03-29 19:05:00,
2013-03-29 15:10:00,55.0,34.7,29.79,North,-999,-999.0,-999.0,35,-99.99,,,-99.99,Homeseer,2013-03-29 19:10:00,
2013-03-29 15:15:00,55.0,35.2,29.78,North,-999,-999.0,-999.0,36,-99.99,,,-99.99,Homeseer,2013-03-29 19:15:00,
2013-03-29 15:20:00,54.8,35.0,29.79,North,-999,-999.0,-999.0,36,-99.99,,,-99.99,Homeseer,2013-03-29 19:20:00,
2013-03-29 15:25:00,55.0,35.7,29.79,North,-999,-999.0,-999.0,37,-99.99,,,-99.99,Homeseer,2013-03-29 19:25:00,
2013-03-29 15:30:00,54.9,34.6,29.79,North,-999,-999.0,-999.0,35,-99.99,,,-99.99,Homeseer,2013-03-29 19:30:00,
2013-03-29 15:35:00,54.6,34.9,29.78,North,-999,-999.0,-999.0,36,-99.99,,,-99.99,Homeseer,2013-03-29 19:35:00,
2013-03-29 15:40:00,55.0,35.2,29.78,North,-999,-999.0,-999.0,36,-99.99,,,-99.99,Homeseer,2013-03-29 19:40:00,
2013-03-29 15:45:00,55.0,34.7,29.78,North,-999,-999.0,-999.0,35,-99.99,,,-99.99,Homeseer,2013-03-29 19:45:00,
2013-03-29 15:50:00,55.4,35.6,29.77,North,-999,-999.0,-999.0,36,-99.99,,,-99.99,Homeseer,2013-03-29 19:50:00,
2013-03-29 15:55:00,54.6,35.4,29.78,North,-999,-999.0,-999.0,37,-99.99,,,-99.99,Homeseer,2013-03-29 19:55:00,
2013-03-29 16:00:00,54.4,35.7,29.78,North,-999,-999.0,-999.0,38,-99.99,,,-99.99,Homeseer,2013-03-29 20:00:00,
2013-03-29 16:05:00,53.2,35.5,29.79,North,-999,-999.0,-999.0,40,-99.99,,,-99.99,Homeseer,2013-03-29 20:05:00,
2013-03-29 16:10:00,52.5,37.1,29.79,North,-999,-999.0,-999.0,45,-99.99,,,-99.99,Homeseer,2013-03-29 20:10:00,
2013-03-29 16:15:00,52.0,38.2,29.79,North,-999,-999.0,-999.0,49,-99.99,,,-99.99,Homeseer,2013-03-29 20:15:00,
2013-03-29 16:20:00,51.3,37.2,29.79,North,-999,-999.0,-999.0,48,-99.99,,,-99.99,Homeseer,2013-03-29 20:20:00,
2013-03-29 16:25:00,51.5,37.0,29.79,North,-999,-999.0,-999.0,47,-99.99,,,-99.99,Homeseer,2013-03-29 20:25:00,
2013-03-29 16:30:00,51.8,37.2,29.79,North,-999,-999.0,-999.0,47,-99.99,,,-99.99,Homeseer,2013-03-29 20:30:00,
2013-03-29 16:35:00,51.2,35.9,29.79,North,-999,-999.0,-999.0,45,-99.99,,,-99.99,Homeseer,2013-03-29 20:35:00,
2013-03-29 16:40:00,51.5,36.6,29.79,North,-999,-999.0,-999.0,46,-99.99,,,-99.99,Homeseer,2013-03-29 20:40:00,
2013-03-29 16:45:00,51.0,36.1,29.79,North,-999,-999.0,-999.0,46,-99.99,,,-99.99,Homeseer,2013-03-29 20:45:00,
2013-03-29 16:50:00,51.0,36.5,29.79,North,-999,-999.0,-999.0,47,-99.99,,,-99.99,Homeseer,2013-03-29 20:50:00,
2013-03-29 16:55:00,50.8,37.1,29.80,North,-999,-999.0,-999.0,49,-99.99,,,-99.99,Homeseer,2013-03-29 20:55:00,
2013-03-29 17:00:00,51.0,37.3,29.80,North,-999,-999.0,-999.0,49,-99.99,,,-99.99,Homeseer,2013-03-29 21:00:00,
2013-03-29 17:05:00,51.0,37.3,29.81,North,-999,-999.0,-999.0,49,-99.99,,,-99.99,Homeseer,2013-03-29 21:05:00,
2013-03-29 17:10:00,50.8,37.1,29.80,North,-999,-999.0,-999.0,49,-99.99,,,-99.99,Homeseer,2013-03-29 21:10:00,
2013-03-29 17:15:00,50.8,37.5,29.81,North,-999,-999.0,-999.0,50,-99.99,,,-99.99,Homeseer,2013-03-29 21:15:00,
2013-03-29 17:20:00,50.7,37.4,29.81,North,-999,-999.0,-999.0,50,-99.99,,,-99.99,Homeseer,2013-03-29 21:20:00,
2013-03-29 17:25:00,50.6,36.9,29.81,North,-999,-999.0,-999.0,49,-99.99,,,-99.99,Homeseer,2013-03-29 21:25:00,
2013-03-29 17:30:00,50.6,37.3,29.81,North,-999,-999.0,-999.0,50,-99.99,,,-99.99,Homeseer,2013-03-29 21:30:00,
2013-03-29 17:35:00,50.7,37.4,29.81,North,-999,-999.0,-999.0,50,-99.99,,,-99.99,Homeseer,2013-03-29 21:35:00,
2013-03-29 17:40:00,50.8,37.5,29.81,North,-999,-999.0,-999.0,50,-99.99,,,-99.99,Homeseer,2013-03-29 21:40:00,
2013-03-29 17:45:00,50.8,37.5,29.81,North,-999,-999.0,-999.0,50,-99.99,,,-99.99,Homeseer,2013-03-29 21:45:00,
2013-03-29 17:50:00,50.9,37.5,29.81,North,-999,-999.0,-999.0,50,-99.99,,,-99.99,Homeseer,2013-03-29 21:50:00,
2013-03-29 17:55:00,50.9,37.5,29.81,North,-999,-999.0,-999.0,50,-99.99,,,-99.99,Homeseer,2013-03-29 21:55:00,
2013-03-29 18:00:00,50.8,37.1,29.81,North,-999,-999.0,-999.0,49,-99.99,,,-99.99,Homeseer,2013-03-29 22:00:00,
2013-03-29 18:05:00,50.7,36.6,29.81,North,-999,-999.0,-999.0,48,-99.99,,,-99.99,Homeseer,2013-03-29 22:05:00,
2013-03-29 18:10:00,50.9,37.5,29.81,North,-999,-999.0,-999.0,50,-99.99,,,-99.99,Homeseer,2013-03-29 22:10:00,
2013-03-29 18:15:00,51.0,38.0,29.81,North,-999,-999.0,-999.0,51,-99.99,,,-99.99,Homeseer,2013-03-29 22:15:00,
2013-03-29 18:20:00,51.0,37.6,29.81,North,-999,-999.0,-999.0,50,-99.99,,,-99.99,Homeseer,2013-03-29 22:20:00,
2013-03-29 18:25:00,51.2,37.8,29.81,North,-999,-999.0,-999.0,50,-99.99,,,-99.99,Homeseer,2013-03-29 22:25:00,
2013-03-29 18:30:00,50.9,37.2,29.81,North,-999,-999.0,-999.0,49,-99.99,,,-99.99,Homeseer,2013-03-29 22:30:00,
2013-03-29 18:35:00,50.8,37.5,29.81,North,-999,-999.0,-999.0,50,-99.99,,,-99.99,Homeseer,2013-03-29 22:35:00,
2013-03-29 18:40:00,50.6,38.0,29.81,North,-999,-999.0,-999.0,52,-99.99,,,-99.99,Homeseer,2013-03-29 22:40:00,
2013-03-29 18:45:00,50.3,38.1,29.82,North,-999,-999.0,-999.0,53,-99.99,,,-99.99,Homeseer,2013-03-29 22:45:00,
2013-03-29 18:50:00,49.7,37.9,29.82,North,-999,-999.0,-999.0,54,-99.99,,,-99.99,Homeseer,2013-03-29 22:50:00,
2013-03-29 18:56:00,48.8,37.7,29.82,North,-999,-999.0,-999.0,56,-99.99,,,-99.99,Homeseer,2013-03-29 22:56:00,
2013-03-29 19:02:00,47.8,37.1,29.83,North,-999,-999.0,-999.0,57,-99.99,,,-99.99,Homeseer,2013-03-29 23:02:00,
2013-03-29 19:08:00,47.0,36.4,29.83,North,-999,-999.0,-999.0,57,-99.99,,,-99.99,Homeseer,2013-03-29 23:08:00,
2013-03-29 19:13:00,46.3,36.0,29.83,North,-999,-999.0,-999.0,58,-99.99,,,-99.99,Homeseer,2013-03-29 23:13:00,
2013-03-29 19:19:00,45.9,36.0,29.83,North,-999,-999.0,-999.0,59,-99.99,,,-99.99,Homeseer,2013-03-29 23:19:00,
2013-03-29 19:24:00,45.5,35.9,29.83,North,-999,-999.0,-999.0,60,-99.99,,,-99.99,Homeseer,2013-03-29 23:24:00,
2013-03-29 19:29:00,45.1,35.5,29.84,North,-999,-999.0,-999.0,60,-99.99,,,-99.99,Homeseer,2013-03-29 23:29:00,
2013-03-29 19:34:00,44.9,35.3,29.84,North,-999,-999.0,-999.0,60,-99.99,,,-99.99,Homeseer,2013-03-29 23:34:00,
2013-03-29 19:39:00,44.8,35.5,29.85,North,-999,-999.0,-999.0,61,-99.99,,,-99.99,Homeseer,2013-03-29 23:39:00,
2013-03-29 19:44:00,44.5,35.0,29.85,North,-999,-999.0,-999.0,60,-99.99,,,-99.99,Homeseer,2013-03-29 23:44:00,
2013-03-29 19:49:00,44.5,35.0,29.84,North,-999,-999.0,-999.0,60,-99.99,,,-99.99,Homeseer,2013-03-29 23:49:00,
2013-03-29 19:54:00,44.4,35.2,29.85,North,-999,-999.0,-999.0,61,-99.99,,,-99.99,Homeseer,2013-03-29 23:54:00,
2013-03-29 19:59:00,44.1,34.9,29.85,North,-999,-999.0,-999.0,61,-99.99,,,-99.99,Homeseer,2013-03-29 23:59:00,
2013-03-29 20:04:00,43.8,34.9,29.85,North,-999,-999.0,-999.0,62,-99.99,,,-99.99,Homeseer,2013-03-30 00:04:00,
2013-03-29 20:09:00,43.5,34.3,29.85,North,-999,-999.0,-999.0,61,-99.99,,,-99.99,Homeseer,2013-03-30 00:09:00,
2013-03-29 20:14:00,43.2,34.3,29.86,North,-999,-999.0,-999.0,62,-99.99,,,-99.99,Homeseer,2013-03-30 00:14:00,
2013-03-29 20:20:00,42.8,34.0,29.87,North,-999,-999.0,-999.0,62,-99.99,,,-99.99,Homeseer,2013-03-30 00:20:00,
2013-03-29 20:26:00,42.5,34.2,29.87,North,-999,-999.0,-999.0,64,-99.99,,,-99.99,Homeseer,2013-03-30 00:26:00,
2013-03-29 20:31:00,42.2,34.0,29.87,North,-999,-999.0,-999.0,64,-99.99,,,-99.99,Homeseer,2013-03-30 00:31:00,
2013-03-29 20:36:00,41.8,33.6,29.87,North,-999,-999.0,-999.0,64,-99.99,,,-99.99,Homeseer,2013-03-30 00:36:00,
2013-03-29 20:41:00,41.5,33.9,29.88,North,-999,-999.0,-999.0,66,-99.99,,,-99.99,Homeseer,2013-03-30 00:41:00,
2013-03-29 20:47:00,41.0,33.9,29.88,North,-999,-999.0,-999.0,68,-99.99,,,-99.99,Homeseer,2013-03-30 00:47:00,
2013-03-29 20:53:00,41.2,33.8,29.88,North,-999,-999.0,-999.0,67,-99.99,,,-99.99,Homeseer,2013-03-30 00:53:00,
2013-03-29 20:58:00,41.2,34.1,29.88,North,-999,-999.0,-999.0,68,-99.99,,,-99.99,Homeseer,2013-03-30 00:58:00,
2013-03-29 21:03:00,41.4,34.3,29.89,North,-999,-999.0,-999.0,68,-99.99,,,-99.99,Homeseer,2013-03-30 01:03:00,
2013-03-29 21:08:00,41.6,34.5,29.89,North,-999,-999.0,-999.0,68,-99.99,,,-99.99,Homeseer,2013-03-30 01:08:00,
2013-03-29 21:13:00,41.8,34.7,29.89,North,-999,-999.0,-999.0,68,-99.99,,,-99.99,Homeseer,2013-03-30 01:13:00,
2013-03-29 21:18:00,41.9,34.8,29.88,North,-999,-999.0,-999.0,68,-99.99,,,-99.99,Homeseer,2013-03-30 01:18:00,
2013-03-29 21:24:00,41.9,35.0,29.89,North,-999,-999.0,-999.0,69,-99.99,,,-99.99,Homeseer,2013-03-30 01:24:00,
2013-03-29 21:29:00,41.9,35.0,29.89,North,-999,-999.0,-999.0,69,-99.99,,,-99.99,Homeseer,2013-03-30 01:29:00,
2013-03-29 21:34:00,41.9,35.0,29.89,North,-999,-999.0,-999.0,69,-99.99,,,-99.99,Homeseer,2013-03-30 01:34:00,
2013-03-29 21:39:00,41.8,34.7,29.89,North,-999,-999.0,-999.0,68,-99.99,,,-99.99,Homeseer,2013-03-30 01:39:00,
2013-03-29 21:44:00,41.6,35.0,29.89,North,-999,-999.0,-999.0,70,-99.99,,,-99.99,Homeseer,2013-03-30 01:44:00,
2013-03-29 21:49:00,41.4,34.8,29.89,North,-999,-999.0,-999.0,70,-99.99,,,-99.99,Homeseer,2013-03-30 01:49:00,
2013-03-29 21:54:00,41.3,34.7,29.89,North,-999,-999.0,-999.0,70,-99.99,,,-99.99,Homeseer,2013-03-30 01:54:00,
2013-03-29 21:59:00,41.0,34.4,29.89,North,-999,-999.0,-999.0,70,-99.99,,,-99.99,Homeseer,2013-03-30 01:59:00,
2013-03-29 22:04:00,40.9,34.3,29.89,North,-999,-999.0,-999.0,70,-99.99,,,-99.99,Homeseer,2013-03-30 02:04:00,
2013-03-29 22:10:00,40.5,34.5,29.89,North,-999,-999.0,-999.0,72,-99.99,,,-99.99,Homeseer,2013-03-30 02:10:00,
2013-03-29 22:15:00,40.4,34.1,29.89,North,-999,-999.0,-999.0,71,-99.99,,,-99.99,Homeseer,2013-03-30 02:15:00,
2013-03-29 22:20:00,40.2,34.2,29.89,North,-999,-999.0,-999.0,72,-99.99,,,-99.99,Homeseer,2013-03-30 02:20:00,
2013-03-29 22:25:00,39.9,34.1,29.89,North,-999,-999.0,-999.0,73,-99.99,,,-99.99,Homeseer,2013-03-30 02:25:00,
2013-03-29 22:30:00,39.7,33.9,29.90,North,-999,-999.0,-999.0,73,-99.99,,,-99.99,Homeseer,2013-03-30 02:30:00,
2013-03-29 22:35:00,39.5,34.0,29.90,North,-999,-999.0,-999.0,74,-99.99,,,-99.99,Homeseer,2013-03-30 02:35:00,
2013-03-29 22:40:00,39.1,33.6,29.90,North,-999,-999.0,-999.0,74,-99.99,,,-99.99,Homeseer,2013-03-30 02:40:00,
2013-03-29 22:45:00,38.9,33.4,29.90,North,-999,-999.0,-999.0,74,-99.99,,,-99.99,Homeseer,2013-03-30 02:45:00,
2013-03-29 22:50:00,38.7,33.5,29.90,North,-999,-999.0,-999.0,75,-99.99,,,-99.99,Homeseer,2013-03-30 02:50:00,
2013-03-29 22:55:00,38.4,33.2,29.89,North,-999,-999.0,-999.0,75,-99.99,,,-99.99,Homeseer,2013-03-30 02:55:00,
2013-03-29 23:00:00,38.2,33.0,29.90,North,-999,-999.0,-999.0,75,-99.99,,,-99.99,Homeseer,2013-03-30 03:00:00,
2013-03-29 23:05:00,38.0,33.0,29.90,North,-999,-999.0,-999.0,76,-99.99,,,-99.99,Homeseer,2013-03-30 03:05:00,
2013-03-29 23:11:00,37.9,33.2,29.90,North,-999,-999.0,-999.0,77,-99.99,,,-99.99,Homeseer,2013-03-30 03:11:00,
2013-03-29 23:16:00,37.8,33.1,29.90,North,-999,-999.0,-999.0,77,-99.99,,,-99.99,Homeseer,2013-03-30 03:16:00,
2013-03-29 23:21:00,37.7,33.2,29.90,North,-999,-999.0,-999.0,78,-99.99,,,-99.99,Homeseer,2013-03-30 03:21:00,
2013-03-29 23:26:00,37.7,33.2,29.90,North,-999,-999.0,-999.0,78,-99.99,,,-99.99,Homeseer,2013-03-30 03:26:00,
2013-03-29 23:31:00,37.6,33.1,29.90,North,-999,-999.0,-999.0,78,-99.99,,,-99.99,Homeseer,2013-03-30 03:31:00,
2013-03-29 23:36:00,37.4,33.1,29.90,North,-999,-999.0,-999.0,79,-99.99,,,-99.99,Homeseer,2013-03-30 03:36:00,
2013-03-29 23:41:00,37.4,33.1,29.91,North,-999,-999.0,-999.0,79,-99.99,,,-99.99,Homeseer,2013-03-30 03:41:00,
2013-03-29 23:47:00,37.3,33.0,29.91,North,-999,-999.0,-999.0,79,-99.99,,,-99.99,Homeseer,2013-03-30 03:47:00,
2013-03-29 23:52:00,37.4,32.9,29.90,North,-999,-999.0,-999.0,78,-99.99,,,-99.99,Homeseer,2013-03-30 03:52:00,
2013-03-29 23:57:00,37.6,33.3,29.91,North,-999,-999.0,-999.0,79,-99.99,,,-99.99,Homeseer,2013-03-30 03:57:00,